Location: Santa Cristina
(46.5667°N, 11.7167°E)
Time: 07:21:27
(UTC+00:00)

ATLAS 2AS CENTAUR R/B - Pass Details

Date: 21 April 2021
Orbit: 949 x 1263 km, 63.7° (Epoch: 02 May)

Event Time Altitude Azimuth Distance (km) Brightness Sun altitude
Rises 02:00:18 0° 320° (NW) 4,121 5.8 -20.5°
Reaches altitude 10° 02:03:10 10° 323° (NW) 3,116 5.2 -20.1°
Maximum altitude 02:10:37 74° 48° (NE) 1,165 3.0 -19.2°
Drops below altitude 10° 02:17:27 10° 134° (SE) 2,870 5.0 -18.3°
Sets 02:19:59 0° 136° (SE) 3,779 5.6 -18.0°
